Volver al catálogo

TAURUS 2

ActivoComunicacionesVLEO
NORAD 66306·PAYLOAD·🇹🇷 Turkey
Este nombre de satélite aún no ha sido confirmado por fuentes oficiales.

Lanzado Nov 2, 2025 desde Cape Canaveral Space Force Station

Loading…

Próximos Pases (próximas 24 horas)

TLE

ActualizadoSource: Space-Track

Época: Sep 14, 2026, 14:46 UTC

1 66306U 25248P   26257.61561480  .00014163  00000-0  48828-3 0  9993
2 66306  45.4033 348.2284 0011072 229.3020 130.6908 15.29942999 48280

Sigue TAURUS 2 en tiempo real con AllMySat

Download on the App Store